[[{"header":{"parameterUnit":"m.s-1","parameterCategory":2,"la1":30.2991,"la2":30.254,"lo1":-89.0895,"lo2":-89.0444,"dy":0.0017,"dx":0.0017,"nx":28,"ny":28,"refTime":"2025-03-17T03:00:00:Z","depth":"0","parameterNumber":2,"parameterNumberName":"U-component_of_CURRENTS"},"data":[0,0,0,0,0,0,0,0,0,0,0,0,0,0,0,0,0,0,0,0,0,0,0,0,0,0,0,0,0,0,0,0,0,0,0,0,0,0,0,0,0,0,0,0,0,0,0,0,0,0,0,0,0,0,0,0,0,0,0.2741,0.2742,0,0.286,0.2861,0.2862,0.2911,0.2911,0.2911,0.2911,0.3015,0.3018,0.3021,0,0,0,0,0,0,0,0,0,0,0,0,0,0.2656,0.2656,0.274,0.2742,0.2744,0.286,0.2861,0.2862,0.291,0.2911,0.2911,0.2911,0.3014,0.3018,0.3021,0,0,0,0,0,0,0,0,0,0,0,0,0,0.2722,0.2656,0.274,0.2785,0.279,0.2859,0.2861,0.2863,0.291,0.2911,0.2911,0.2911,0.3013,0.3017,0.3021,0.3045,0,0,0.3034,0.3036,0,0,0,0,0,0,0,0,0.2718,0.2724,0.2776,0.2782,0.2788,0.2874,0.287,0.2924,0.291,0.2861,0.2911,0.2911,0.2969,0.2977,0.2994,0.305,0.3054,0.3034,0.3037,0.3039,0.304,0,0,0,0,0,0,0,0.2713,0.272,0.2784,0.2778,0.2786,0.2834,0.2842,0.2881,0.291,0.2865,0.287,0.2889,0.2972,0.299,0.2997,0.3056,0.3034,0.3038,0.304,0.3042,0.3106,0.3105,0,0,0,0,0,0,0.27,0.2715,0.278,0.2788,0.2757,0.2835,0.2844,0.2843,0.291,0.2921,0.2889,0.2891,0.2983,0.2992,0.3001,0.3064,0.3039,0.3042,0.3045,0.3107,0.3106,0.3105,0,0,0,0,0,0,0.2698,0.2704,0.2776,0.2759,0.2772,0.2836,0.2835,0.2845,0.2861,0.2929,0.2939,0.2894,0.2983,0.2995,0.3024,0.3067,0.3044,0.3048,0.3108,0.3107,0.3106,0.3171,0,0,0,0,0,0,0.2694,0.2702,0.2699,0.2757,0.2772,0.2821,0.2836,0.2848,0.2875,0.2879,0.2937,0.2947,0.2984,0.3018,0.3028,0.3073,0.3051,0.3109,0.3107,0.3106,0.317,0.3172,0.3174,0,0,0,0,0,0.269,0.2696,0.2697,0.2706,0.2764,0.2822,0.2834,0.2879,0.2875,0.289,0.2913,0.2945,0.3016,0.3021,0.3033,0.308,0.3109,0.3108,0.3106,0.3169,0.3172,0.3174,0,0,0,0,0,0,0.2671,0.2704,0.2706,0.2723,0.2767,0.2832,0.2859,0.2871,0.2902,0.2904,0.2943,0.2955,0.3001,0.3008,0.3011,0.3084,0.3065,0.3066,0.3108,0.3112,0.3114,0.311,0.3055,0,0,0,0,0,0.266,0.2663,0.271,0.2725,0.2745,0.2792,0.2819,0.2847,0.2885,0.2899,0.2936,0.2964,0.3004,0.3029,0.3062,0.3103,0.3129,0.3131,0.3134,0.3136,0.3135,0.3182,0.319,0.31,0.31,0.31,0,0,0.266,0.2677,0.2682,0.272,0.2757,0.2805,0.2808,0.2855,0.2896,0.2906,0.296,0.298,0.3011,0.3066,0.3086,0.3081,0.3182,0.3134,0.3137,0.3134,0.3181,0.3191,0.3199,0.3098,0.3099,0.3099,0,0,0.2677,0.2673,0.269,0.2724,0.2777,0.2813,0.2819,0.2876,0.2901,0.2947,0.2966,0.2993,0.3053,0.3091,0.3115,0.3137,0.3191,0.3148,0.3173,0.322,0.3229,0.3237,0.3323,0.3338,0.3152,0.3153,0.3153,0,0.2681,0.2698,0.2709,0.2745,0.2777,0.2812,0.2851,0.2894,0.2952,0.2976,0.2968,0.3046,0.3069,0.3142,0.3148,0.3152,0.3194,0.3175,0.3228,0.3236,0.3244,0.333,0.3346,0.3156,0.3155,0.3155,0.3155,0,0.272,0.2736,0.2756,0.28,0.2833,0.2877,0.2931,0.2969,0.299,0.303,0.3088,0.3111,0.3159,0.317,0.3172,0.3238,0.326,0.3231,0.3235,0.3258,0.3346,0.3362,0.316,0.3159,0.3158,0.3157,0,0,0.2736,0.2771,0.2781,0.2802,0.2861,0.2899,0.2963,0.3032,0.308,0.3123,0.3181,0.3226,0.3232,0.3253,0.3264,0.329,0.3387,0.3282,0.3283,0.3393,0.3532,0.356,0.358,0.3377,0.3379,0.338,0.359,0,0.277,0.2823,0.2831,0.2896,0.2934,0.2969,0.3025,0.3088,0.3136,0.3205,0.3236,0.3293,0.3271,0.3294,0.3325,0.3369,0.3423,0.3335,0.3469,0.3474,0.3516,0.3596,0.348,0.3657,0.3605,0.3608,0.361,0,0.2819,0.2844,0.2894,0.2938,0.2956,0.2996,0.308,0.3135,0.3233,0.3263,0.3324,0.3359,0.3433,0.3382,0.3507,0.3458,0.3499,0.3521,0.353,0.3538,0.3529,0.3613,0.3687,0.3603,0.3634,0.3632,0.363,0,0.2844,0.2892,0.2923,0.2944,0.3005,0.303,0.3068,0.3155,0.3209,0.3306,0.3358,0.3444,0.3507,0.3557,0.3634,0.3577,0.3768,0.3699,0.3774,0.3779,0.3695,0.3689,0.3718,0.3778,0.3778,0.3777,0.3777,0,0.2886,0.2924,0.2935,0.2965,0.3007,0.304,0.3102,0.3158,0.3246,0.3325,0.3388,0.3481,0.3547,0.367,0.3697,0.3827,0.3842,0.381,0.3836,0.3717,0.371,0.3641,0.3594,0.3785,0.3784,0.3782,0.3781,0,0.2925,0.2938,0.2977,0.3011,0.3022,0.3055,0.3111,0.3158,0.3246,0.3355,0.3392,0.355,0.3714,0.3811,0.3931,0.3935,0.3935,0.4058,0.3942,0.3949,0.3888,0.3848,0.3773,0.3663,0.4164,0.4165,0.4167,0,0.2934,0.2962,0.2993,0.3001,0.3013,0.3053,0.3077,0.3151,0.3198,0.3405,0.3455,0.3669,0.3805,0.4039,0.409,0.4203,0.4045,0.4145,0.3984,0.3903,0.3879,0.3692,0.3588,0.3923,0.3923,0.3922,0.3922,0,0.2943,0.2959,0.2982,0.3,0.3014,0.3035,0.3074,0.312,0.323,0.3336,0.3504,0.3642,0.3901,0.3984,0.4161,0.4194,0.3955,0.414,0.4066,0.3713,0.3499,0.34,0.3801,0.3918,0.3919,0.3919,0.3919,0.3919,0.2921,0.2932,0.2948,0.2964,0.2987,0.2999,0.2989,0.3058,0.3144,0.3276,0.3469,0.3616,0.383,0.4059,0.4083,0.4049,0.3967,0.3924,0.39,0.3732,0.3548,0.3975,0.4103,0.4104,0.4105,0.4106,0.4107,0,0.2827,0.2862,0.2897,0.2899,0.2894,0.2929,0.2959,0.2929,0.2988,0.3182,0.3313,0.3527,0.3682,0.3816,0.3905,0.3807,0.359,0.3723,0.3404,0.3325,0.3734,0.3644,0.3665,0.3665,0.3665,0.3665,0.3665,0.3665,0.2775,0.2776,0.2806,0.2777,0.2789,0.2724,0.2717,0.272,0.2801,0.2907,0.3015,0.3186,0.3483,0.374,0.3716,0.3626,0.3326,0.3225,0.3187,0.3468,0.3481,0.3494,0.3396,0.3364,0.3364,0.2613,0.2608,0.2604]},{"header":{"parameterUnit":"m.s-1","parameterCategory":2,"la1":30.2991,"la2":30.254,"lo1":-89.0895,"lo2":-89.0444,"dy":0.0017,"dx":0.0017,"nx":28,"ny":28,"refTime":"2025-03-17T03:00:00:Z","depth":"0","parameterNumber":3,"parameterNumberName":"V-component_of_CURRENTS"},"data":[0,0,0,0,0,0,0,0,0,0,0,0,0,0,0,0,0,0,0,0,0,0,0,0,0,0,0,0,0,0,0,0,0,0,0,0,0,0,0,0,0,0,0,0,0,0,0,0,0,0,0,0,0,0,0,0,0,0,-0.0595,-0.0597,0,-0.0731,-0.0732,-0.0734,-0.0879,-0.0881,-0.0883,-0.0885,-0.107,-0.1073,-0.1076,0,0,0,0,0,0,0,0,0,0,0,0,0,-0.0555,-0.0554,-0.0595,-0.0597,-0.0598,-0.073,-0.0732,-0.0734,-0.0879,-0.0881,-0.0884,-0.0886,-0.1069,-0.1073,-0.1076,0,0,0,0,0,0,0,0,0,0,0,0,0,-0.062,-0.0554,-0.0595,-0.0686,-0.0695,-0.073,-0.0732,-0.0735,-0.0879,-0.0882,-0.0885,-0.0887,-0.1068,-0.1072,-0.1077,-0.1045,0,0,-0.1091,-0.1093,0,0,0,0,0,0,0,0,-0.0616,-0.0621,-0.0671,-0.068,-0.069,-0.0791,-0.0786,-0.0841,-0.0878,-0.081,-0.0885,-0.0889,-0.0978,-0.0991,-0.101,-0.1054,-0.1062,-0.1091,-0.1094,-0.1096,-0.1097,0,0,0,0,0,0,0,-0.0611,-0.0617,-0.065,-0.0672,-0.0684,-0.0752,-0.0764,-0.0797,-0.0877,-0.0816,-0.0827,-0.084,-0.0985,-0.1005,-0.1015,-0.1065,-0.1091,-0.1095,-0.1098,-0.11,-0.1119,-0.1117,0,0,0,0,0,0,-0.0584,-0.0611,-0.0645,-0.0654,-0.0659,-0.075,-0.0763,-0.0756,-0.0876,-0.0897,-0.0837,-0.0846,-0.0996,-0.101,-0.1022,-0.1077,-0.1096,-0.11,-0.1103,-0.1121,-0.1119,-0.1116,0,0,0,0,0,0,-0.0582,-0.0585,-0.064,-0.0637,-0.0649,-0.0746,-0.0738,-0.0757,-0.0782,-0.0891,-0.0914,-0.0843,-0.0999,-0.1016,-0.1049,-0.1082,-0.1102,-0.1107,-0.1124,-0.1121,-0.1118,-0.1132,0,0,0,0,0,0,-0.058,-0.0583,-0.0562,-0.0634,-0.0648,-0.066,-0.0736,-0.0758,-0.0785,-0.0798,-0.0903,-0.0924,-0.1002,-0.1041,-0.1053,-0.1089,-0.111,-0.1127,-0.1123,-0.1119,-0.1134,-0.113,-0.1125,0,0,0,0,0,-0.0578,-0.054,-0.056,-0.0564,-0.0617,-0.0658,-0.0671,-0.0753,-0.0782,-0.0787,-0.0851,-0.0921,-0.1024,-0.1043,-0.1058,-0.1096,-0.1129,-0.1124,-0.1119,-0.1136,-0.113,-0.1126,0,0,0,0,0,0,-0.0503,-0.0553,-0.0577,-0.0552,-0.06,-0.0683,-0.0688,-0.0732,-0.0783,-0.0795,-0.0893,-0.0917,-0.0967,-0.099,-0.1008,-0.1076,-0.1086,-0.1084,-0.1094,-0.1089,-0.1085,-0.1059,-0.1114,0,0,0,0,0,-0.0473,-0.0464,-0.0524,-0.0504,-0.0521,-0.0594,-0.0616,-0.067,-0.0727,-0.0754,-0.0829,-0.0889,-0.0951,-0.0986,-0.1037,-0.106,-0.1063,-0.1084,-0.108,-0.1077,-0.1057,-0.1096,-0.1096,-0.11,-0.11,-0.11,0,0,-0.0439,-0.0462,-0.0458,-0.0488,-0.0529,-0.0554,-0.0616,-0.0642,-0.068,-0.0761,-0.0819,-0.0878,-0.0947,-0.1003,-0.1025,-0.1034,-0.1066,-0.107,-0.1068,-0.105,-0.1091,-0.1092,-0.1092,-0.1096,-0.1097,-0.1098,0,0,-0.038,-0.0383,-0.037,-0.0402,-0.0454,-0.0506,-0.0504,-0.0581,-0.0634,-0.0679,-0.0759,-0.0817,-0.0896,-0.0972,-0.1015,-0.0991,-0.1041,-0.1006,-0.098,-0.1019,-0.1021,-0.1022,-0.0994,-0.0993,-0.1007,-0.1007,-0.1007,0,-0.0341,-0.0328,-0.0372,-0.0377,-0.0394,-0.0477,-0.0475,-0.054,-0.0623,-0.0651,-0.0695,-0.0811,-0.0889,-0.096,-0.0976,-0.0994,-0.0991,-0.1016,-0.102,-0.1022,-0.1023,-0.0994,-0.0993,-0.1007,-0.1007,-0.1007,-0.1007,0,-0.0295,-0.0284,-0.0276,-0.0314,-0.0334,-0.0342,-0.0431,-0.0467,-0.0532,-0.0604,-0.0677,-0.0777,-0.0839,-0.0891,-0.0946,-0.0991,-0.0975,-0.1019,-0.105,-0.1025,-0.0994,-0.0992,-0.1007,-0.1007,-0.1007,-0.1007,0,0,-0.0221,-0.0239,-0.0239,-0.0235,-0.0297,-0.0308,-0.0358,-0.0423,-0.043,-0.0557,-0.0572,-0.0731,-0.0775,-0.0818,-0.0896,-0.0953,-0.0981,-0.0988,-0.099,-0.0986,-0.1015,-0.0908,-0.0896,-0.1041,-0.1042,-0.1042,-0.098,0,-0.0178,-0.0155,-0.0181,-0.0166,-0.0163,-0.0229,-0.0251,-0.0321,-0.0393,-0.043,-0.0573,-0.0619,-0.0754,-0.0766,-0.0857,-0.0936,-0.0981,-0.0989,-0.1015,-0.1013,-0.0947,-0.0893,-0.0869,-0.0804,-0.0979,-0.0979,-0.0978,0,-0.0144,-0.0127,-0.0092,-0.0074,-0.0073,-0.0072,-0.0089,-0.0122,-0.0213,-0.0264,-0.036,-0.045,-0.056,-0.066,-0.0816,-0.0814,-0.0905,-0.0981,-0.0982,-0.0875,-0.0905,-0.086,-0.0795,-0.0996,-0.0976,-0.0977,-0.0977,0,-0.0089,-0.0068,-0.0027,-0.0029,-0.0028,-0.0008,-0.0008,-0.0065,-0.0055,-0.0143,-0.0125,-0.0295,-0.0318,-0.0503,-0.0671,-0.0744,-0.0796,-0.0915,-0.0901,-0.0892,-0.0866,-0.0854,-0.1021,-0.101,-0.101,-0.101,-0.101,0,-0.0046,-0.0014,0.0012,0.0032,0.0113,0.0084,0.0159,0.012,0.0124,0.0183,-0.0018,0.002,-0.0282,-0.0358,-0.0573,-0.0682,-0.0718,-0.0858,-0.087,-0.086,-0.0849,-0.1017,-0.1144,-0.1008,-0.1008,-0.1008,-0.1009,0,-0.0002,0.0004,0.0063,0.0109,0.0139,0.0195,0.029,0.0346,0.0324,0.0411,0.0402,0.0284,0.0196,-0.0058,-0.0281,-0.0483,-0.0729,-0.0676,-0.06,-0.0603,-0.0808,-0.0933,-0.1026,-0.111,-0.0669,-0.0666,-0.0664,0,0.0031,0.0061,0.0138,0.0203,0.0236,0.0328,0.041,0.0431,0.0514,0.0594,0.0663,0.062,0.0617,0.0352,0.0003,-0.028,-0.0548,-0.0454,-0.0617,-0.0773,-0.0925,-0.1022,-0.1097,-0.0582,-0.0579,-0.0577,-0.0575,0,0.0109,0.0126,0.0182,0.0311,0.0412,0.0529,0.0657,0.0763,0.0832,0.0934,0.1086,0.1109,0.089,0.0634,0.0262,0.0011,-0.0576,-0.0408,-0.0634,-0.0894,-0.0952,-0.105,-0.0628,-0.0553,-0.0555,-0.0557,-0.0558,-0.0559,0.0186,0.0241,0.0321,0.0444,0.0562,0.073,0.0852,0.1012,0.1201,0.1392,0.142,0.1502,0.1117,0.0615,0.0293,-0.0312,-0.0377,-0.0568,-0.0706,-0.0788,-0.0879,-0.0344,-0.0247,-0.0248,-0.0248,-0.0248,-0.0249,0,0.0302,0.0354,0.0463,0.0612,0.0755,0.0796,0.1021,0.116,0.1415,0.1609,0.1761,0.1656,0.1176,0.0622,-0.0153,-0.057,-0.0802,-0.083,-0.1047,-0.1115,-0.0695,-0.0704,-0.0624,-0.0624,-0.0624,-0.0624,-0.0624,-0.0623,0.0377,0.0487,0.0527,0.0763,0.087,0.1078,0.1211,0.1422,0.1595,0.1848,0.1933,0.1969,0.1571,0.0203,-0.0739,-0.0974,-0.1343,-0.136,-0.154,-0.1355,-0.1345,-0.1336,-0.1378,-0.1441,-0.1442,-0.1928,-0.1933,-0.1937]}],[{"header":{"parameterUnit":"m.s-1","parameterCategory":2,"la1":30.2991,"la2":30.254,"lo1":-89.0895,"lo2":-89.0444,"dy":0.0017,"dx":0.0017,"nx":28,"ny":28,"refTime":"2025-03-17T03:00:00:Z","depth":"2","parameterNumber":2,"parameterNumberName":"U-component_of_CURRENTS"},"data":[0,0,0,0,0,0,0,0,0,0,0,0,0,0,0,0,0,0,0,0,0,0,0,0,0,0,0,0,0,0,0,0,0,0,0,0,0,0,0,0,0,0,0,0,0,0,0,0,0,0,0,0,0,0,0,0,0,0,0.2171,0.2172,0,0.2294,0.2295,0.2297,0.2407,0.2409,0.241,0.2412,0.2471,0.2471,0.2471,0,0,0,0,0,0,0,0,0,0,0,0,0,0.2057,0.2059,0.217,0.2172,0.2174,0.2294,0.2295,0.2297,0.2407,0.2409,0.2411,0.2412,0.2471,0.2471,0.2471,0,0,0,0,0,0,0,0,0,0,0,0,0,0.2134,0.2059,0.217,0.2245,0.2253,0.2294,0.2295,0.2297,0.2407,0.2409,0.2411,0.2413,0.247,0.2471,0.2471,0.2426,0,0,0.2472,0.2472,0,0,0,0,0,0,0,0,0.2129,0.2137,0.2232,0.224,0.2249,0.234,0.2278,0.2338,0.2406,0.2346,0.2412,0.2414,0.2421,0.2425,0.2441,0.2429,0.2432,0.2472,0.2472,0.2472,0.2472,0,0,0,0,0,0,0,0.2124,0.2133,0.2217,0.2234,0.2244,0.2282,0.2295,0.229,0.2366,0.2351,0.236,0.2377,0.2425,0.244,0.2443,0.2432,0.2472,0.2472,0.2472,0.2472,0.2498,0.2498,0,0,0,0,0,0,0.2109,0.2128,0.2213,0.2221,0.2196,0.2283,0.2297,0.2306,0.2368,0.238,0.2375,0.2382,0.2439,0.2442,0.2445,0.2501,0.2472,0.2472,0.2472,0.2497,0.2498,0.2499,0,0,0,0,0,0,0.2106,0.2115,0.2208,0.218,0.2195,0.2282,0.2292,0.2308,0.2343,0.2387,0.2398,0.2397,0.2441,0.2445,0.2475,0.25,0.2472,0.2472,0.2497,0.2498,0.2498,0.2543,0,0,0,0,0,0,0.2102,0.2113,0.2128,0.2178,0.2196,0.2256,0.2291,0.2309,0.235,0.2361,0.2408,0.2416,0.2443,0.2475,0.2475,0.2499,0.2472,0.2496,0.2497,0.2498,0.2541,0.2545,0.2549,0,0,0,0,0,0.2098,0.2119,0.2128,0.2139,0.2208,0.2257,0.227,0.2338,0.2349,0.2375,0.2409,0.2416,0.2482,0.2475,0.2475,0.2501,0.2495,0.2497,0.2498,0.2539,0.2545,0.2549,0,0,0,0,0,0,0.2088,0.2134,0.2145,0.2181,0.2221,0.2278,0.2313,0.2333,0.2378,0.2391,0.2417,0.2427,0.2465,0.2465,0.2456,0.251,0.249,0.2492,0.2521,0.2527,0.2531,0.2558,0.2473,0,0,0,0,0,0.2084,0.2106,0.2152,0.2179,0.2199,0.2245,0.2275,0.2314,0.2355,0.2379,0.2405,0.2434,0.2463,0.2482,0.2503,0.2519,0.2549,0.2536,0.254,0.2544,0.2566,0.2626,0.2638,0.2503,0.2503,0.2503,0,0,0.2087,0.2114,0.2129,0.2177,0.2211,0.2255,0.227,0.232,0.2366,0.2371,0.2433,0.2444,0.2469,0.2512,0.2527,0.252,0.2597,0.2546,0.2549,0.2569,0.2628,0.2642,0.2654,0.2504,0.2503,0.2503,0,0,0.2102,0.2124,0.215,0.2179,0.2233,0.227,0.228,0.2334,0.2376,0.2431,0.2443,0.2478,0.2517,0.2549,0.2569,0.2599,0.2614,0.2587,0.2637,0.2694,0.2707,0.2718,0.2776,0.2792,0.2593,0.2594,0.2594,0,0.2107,0.2137,0.2167,0.2197,0.2231,0.2273,0.2313,0.236,0.2418,0.2444,0.2469,0.2532,0.2553,0.2598,0.2627,0.2614,0.2641,0.2618,0.2703,0.2714,0.2725,0.2781,0.2799,0.2596,0.2596,0.2595,0.2595,0,0.2136,0.2165,0.2182,0.2234,0.2279,0.2315,0.238,0.2422,0.2473,0.2516,0.2577,0.2614,0.2658,0.266,0.2668,0.2729,0.2723,0.2699,0.2695,0.2742,0.2797,0.2815,0.2599,0.2598,0.2598,0.2597,0,0,0.2138,0.2191,0.2198,0.2223,0.2297,0.2336,0.2412,0.2486,0.2537,0.2603,0.267,0.2729,0.2736,0.2757,0.2747,0.28,0.2907,0.2787,0.2789,0.2855,0.3038,0.2961,0.2972,0.2892,0.2895,0.2898,0.3048,0,0.2152,0.2205,0.2234,0.2297,0.2338,0.2388,0.2455,0.2528,0.2606,0.2679,0.2727,0.2789,0.2775,0.2799,0.2852,0.2889,0.2953,0.2869,0.2974,0.2978,0.2913,0.299,0.2765,0.2873,0.3064,0.3067,0.3069,0,0.2182,0.2213,0.2267,0.2331,0.2352,0.2395,0.2503,0.2569,0.2674,0.2732,0.2799,0.2838,0.292,0.2907,0.3031,0.2974,0.3023,0.3054,0.306,0.2989,0.2934,0.2855,0.2897,0.3098,0.3096,0.3094,0.3092,0,0.2182,0.2242,0.2282,0.2301,0.2381,0.2413,0.2472,0.2581,0.265,0.2764,0.2834,0.2915,0.2988,0.3056,0.313,0.3096,0.3267,0.3226,0.3204,0.32,0.3031,0.3005,0.3334,0.3334,0.3333,0.3333,0.3333,0,0.219,0.2231,0.2279,0.2291,0.2346,0.2417,0.2501,0.256,0.2681,0.2763,0.2852,0.2936,0.3034,0.3132,0.3175,0.3249,0.3312,0.3245,0.3243,0.3038,0.3012,0.3215,0.32,0.3339,0.3337,0.3336,0.3335,0,0.22,0.2225,0.2262,0.2316,0.234,0.2385,0.25,0.2571,0.2682,0.28,0.2841,0.2993,0.3115,0.3194,0.3324,0.3314,0.3382,0.3386,0.3138,0.3104,0.327,0.3254,0.3401,0.34,0.3399,0.3398,0.3397,0,0.2215,0.224,0.2258,0.2285,0.2306,0.2389,0.245,0.2553,0.2632,0.2826,0.2873,0.3037,0.3118,0.3278,0.33,0.3366,0.3397,0.3176,0.307,0.3299,0.3282,0.3268,0.3255,0.2874,0.2869,0.2865,0.2862,0,0.2246,0.2239,0.226,0.2307,0.2346,0.2384,0.2472,0.2519,0.2655,0.2747,0.2877,0.296,0.3113,0.3078,0.3151,0.3152,0.3142,0.3096,0.3425,0.2876,0.2809,0.279,0.2793,0.2826,0.2829,0.2832,0.2834,0.2836,0.2258,0.2273,0.2297,0.2337,0.2383,0.2379,0.2377,0.2473,0.2547,0.2623,0.2768,0.2798,0.2869,0.2867,0.282,0.2797,0.3006,0.2878,0.2888,0.2903,0.2799,0.2732,0.2717,0.2719,0.2722,0.2724,0.2726,0,0.2227,0.2275,0.2341,0.2333,0.2326,0.2363,0.2395,0.2349,0.2368,0.2469,0.2529,0.2377,0.2389,0.2449,0.238,0.2412,0.2361,0.2304,0.2215,0.2255,0.2291,0.215,0.1898,0.1895,0.1892,0.1889,0,0,0.2216,0.2239,0.2267,0.2253,0.2264,0.2189,0.2156,0.2113,0.2142,0.2101,0.2099,0.2266,0.2391,0.2097,0.2094,0.1978,0.2084,0.1906,0.2584,0.252,0.255,0.2656,0.2491,0,0,0,0,0]},{"header":{"parameterUnit":"m.s-1","parameterCategory":2,"la1":30.2991,"la2":30.254,"lo1":-89.0895,"lo2":-89.0444,"dy":0.0017,"dx":0.0017,"nx":28,"ny":28,"refTime":"2025-03-17T03:00:00:Z","depth":"2","parameterNumber":3,"parameterNumberName":"V-component_of_CURRENTS"},"data":[0,0,0,0,0,0,0,0,0,0,0,0,0,0,0,0,0,0,0,0,0,0,0,0,0,0,0,0,0,0,0,0,0,0,0,0,0,0,0,0,0,0,0,0,0,0,0,0,0,0,0,0,0,0,0,0,0,0,0.0004,0.0003,0,-0.0099,-0.01,-0.0102,-0.0213,-0.0214,-0.0216,-0.0217,-0.0306,-0.0307,-0.0308,0,0,0,0,0,0,0,0,0,0,0,0,0,0.0075,0.0075,0.0004,0.0003,0.0002,-0.0099,-0.0101,-0.0102,-0.0212,-0.0214,-0.0216,-0.0218,-0.0306,-0.0307,-0.0308,0,0,0,0,0,0,0,0,0,0,0,0,0,0.0015,0.0074,0.0005,-0.0065,-0.0072,-0.0099,-0.0101,-0.0102,-0.0212,-0.0214,-0.0216,-0.0218,-0.0305,-0.0307,-0.0308,-0.0272,0,0,-0.0312,-0.0313,0,0,0,0,0,0,0,0,0.0018,0.0012,-0.0053,-0.006,-0.0068,-0.0145,-0.0108,-0.0158,-0.0211,-0.016,-0.0217,-0.022,-0.0248,-0.0254,-0.0271,-0.0276,-0.028,-0.0313,-0.0313,-0.0314,-0.0315,0,0,0,0,0,0,0,0.0023,0.0016,-0.0038,-0.0054,-0.0063,-0.0101,-0.0112,-0.0119,-0.019,-0.0164,-0.0172,-0.0182,-0.0253,-0.0269,-0.0273,-0.0282,-0.0313,-0.0314,-0.0315,-0.0315,-0.036,-0.036,0,0,0,0,0,0,0.0041,0.002,-0.0034,-0.0041,-0.0028,-0.01,-0.0113,-0.0118,-0.0191,-0.0204,-0.018,-0.0187,-0.0265,-0.0272,-0.0277,-0.0291,-0.0314,-0.0315,-0.0316,-0.036,-0.036,-0.036,0,0,0,0,0,0,0.0043,0.0038,-0.003,-0.0012,-0.0024,-0.0099,-0.0105,-0.0119,-0.0145,-0.0203,-0.0216,-0.0192,-0.0267,-0.0275,-0.031,-0.0293,-0.0316,-0.0317,-0.0359,-0.036,-0.036,-0.0284,0,0,0,0,0,0,0.0046,0.0039,0.0035,-0.0011,-0.0024,-0.0048,-0.0103,-0.012,-0.0147,-0.0157,-0.0217,-0.0228,-0.027,-0.0308,-0.0312,-0.0295,-0.0319,-0.0359,-0.0359,-0.036,-0.0286,-0.0282,-0.0278,0,0,0,0,0,0.0049,0.0051,0.0035,0.0028,-0.0025,-0.0047,-0.0057,-0.0119,-0.0145,-0.0151,-0.0208,-0.0226,-0.0314,-0.0309,-0.0313,-0.0297,-0.0358,-0.0359,-0.036,-0.0288,-0.0283,-0.0278,0,0,0,0,0,0,0.0075,0.0039,0.002,0.001,-0.0015,-0.0066,-0.0079,-0.0108,-0.0155,-0.017,-0.0225,-0.0239,-0.0264,-0.0292,-0.0285,-0.0316,-0.034,-0.0341,-0.0284,-0.0279,-0.0275,-0.0259,-0.032,0,0,0,0,0,0.0084,0.008,0.0042,0.0037,0.0027,-0.0019,-0.0037,-0.0073,-0.0116,-0.014,-0.0178,-0.0227,-0.0265,-0.0283,-0.0318,-0.0322,-0.035,-0.032,-0.0315,-0.0312,-0.0304,-0.0351,-0.0349,-0.0362,-0.0362,-0.0362,0,0,0.0093,0.0076,0.007,0.0044,0.0018,0.0015,-0.0037,-0.0057,-0.0063,-0.0137,-0.0157,-0.0206,-0.0265,-0.0288,-0.03,-0.0311,-0.0319,-0.0312,-0.0308,-0.0304,-0.0351,-0.035,-0.0348,-0.0363,-0.0363,-0.0363,0,0,0.0122,0.0097,0.0104,0.0093,0.0065,0.0037,0.0038,-0.0004,-0.0031,-0.0065,-0.0116,-0.0166,-0.0215,-0.0256,-0.0285,-0.0275,-0.0296,-0.0275,-0.0237,-0.0281,-0.028,-0.0279,-0.0291,-0.0292,-0.0273,-0.0272,-0.0272,0,0.0132,0.014,0.0104,0.0115,0.011,0.0056,0.0069,0.0041,-0.0007,-0.0015,-0.0071,-0.0153,-0.021,-0.0226,-0.0243,-0.0264,-0.0277,-0.0245,-0.0274,-0.0274,-0.0275,-0.0287,-0.0289,-0.0269,-0.0269,-0.027,-0.027,0,0.017,0.0176,0.0184,0.018,0.0169,0.0173,0.0137,0.0127,0.0078,0.0043,0.0004,-0.0088,-0.0142,-0.0163,-0.0212,-0.0221,-0.0224,-0.026,-0.0278,-0.0268,-0.0282,-0.0286,-0.0264,-0.0265,-0.0266,-0.0267,0,0,0.0195,0.0208,0.021,0.023,0.0207,0.0208,0.0206,0.0192,0.0198,0.012,0.0115,0.0014,-0.0037,-0.0073,-0.0122,-0.0168,-0.0199,-0.021,-0.0214,-0.0206,-0.0262,-0.0266,-0.0271,-0.0231,-0.0232,-0.0232,-0.0261,0,0.0236,0.0277,0.0268,0.0309,0.0326,0.0297,0.0307,0.0287,0.0236,0.0219,0.0126,0.0086,0.0002,-0.0028,-0.0087,-0.017,-0.0207,-0.0185,-0.0286,-0.0289,-0.0283,-0.0276,-0.0254,-0.0279,-0.0265,-0.0266,-0.0266,0,0.027,0.0299,0.0344,0.0386,0.0392,0.0407,0.0416,0.0415,0.0378,0.0339,0.0278,0.0205,0.0133,0.0043,-0.0088,-0.0063,-0.0157,-0.0228,-0.0231,-0.0265,-0.0301,-0.0294,-0.0287,-0.0273,-0.0272,-0.0272,-0.0271,0,0.0304,0.0351,0.0393,0.0406,0.0438,0.0461,0.0469,0.0449,0.0472,0.0416,0.0412,0.0306,0.0259,0.0118,-0.0048,-0.0068,-0.0184,-0.0239,-0.0318,-0.0318,-0.0337,-0.0337,-0.033,-0.033,-0.033,-0.033,-0.033,0,0.035,0.0388,0.0417,0.0449,0.0514,0.0507,0.0562,0.0555,0.0561,0.0603,0.0478,0.0486,0.0272,0.0176,0.0005,-0.0154,-0.015,-0.0303,-0.0331,-0.0308,-0.0306,-0.0339,-0.0339,-0.0331,-0.0331,-0.0331,-0.0331,0,0.0381,0.0399,0.0459,0.051,0.0532,0.0571,0.0646,0.0689,0.0677,0.0726,0.0718,0.0632,0.0496,0.0298,0.0085,-0.0065,-0.0235,-0.0289,-0.0229,-0.0251,-0.035,-0.0346,-0.039,-0.039,-0.0391,-0.0391,-0.0392,0,0.0405,0.0434,0.0502,0.0548,0.0579,0.0643,0.0702,0.0736,0.0796,0.0824,0.0867,0.0765,0.0698,0.0399,0.0114,-0.0157,-0.0203,-0.0298,-0.0361,-0.0335,-0.0359,-0.0354,-0.035,-0.0346,-0.0346,-0.0346,-0.0346,0,0.0461,0.0471,0.0521,0.0604,0.0678,0.0775,0.0865,0.0942,0.0993,0.1039,0.1085,0.1032,0.0752,0.0472,0.0112,-0.0074,-0.0264,-0.0305,-0.0298,-0.0334,-0.0297,-0.0319,-0.0316,-0.0345,-0.0345,-0.0345,-0.0345,-0.0345,0.0502,0.0537,0.0594,0.068,0.0765,0.0898,0.0995,0.1096,0.1211,0.1286,0.1237,0.1161,0.0853,0.0376,0.0069,-0.0246,-0.0252,-0.0374,-0.0373,-0.0373,-0.0362,-0.0329,-0.0378,-0.0378,-0.0379,-0.0379,-0.0379,0,0.0581,0.0612,0.0679,0.0793,0.09,0.0937,0.1108,0.1202,0.1345,0.1375,0.1382,0.1089,0.0773,0.0432,-0.0041,-0.0329,-0.0357,-0.0408,-0.0389,-0.0388,-0.0387,-0.0378,-0.0398,-0.0399,-0.0399,-0.04,0,0,0.0627,0.0702,0.0731,0.0906,0.0983,0.1141,0.1251,0.1365,0.1428,0.145,0.14,0.1279,0.0868,0.0527,0.0133,-0.0131,-0.019,-0.0179,-0.0135,-0.0066,-0.0061,-0.0341,-0.0322,0,0,0,0,0]}],[{"header":{"parameterUnit":"m.s-1","parameterCategory":2,"la1":30.2991,"la2":30.254,"lo1":-89.0895,"lo2":-89.0444,"dy":0.0017,"dx":0.0017,"nx":28,"ny":28,"refTime":"2025-03-17T03:00:00:Z","depth":"4","parameterNumber":2,"parameterNumberName":"U-component_of_CURRENTS"},"data":[0,0,0,0,0,0,0,0,0,0,0,0,0,0,0,0,0,0,0,0,0,0,0,0,0,0,0,0,0,0,0,0,0,0,0,0,0,0,0,0,0,0,0,0,0,0,0,0,0,0,0,0,0,0,0,0,0,0,0.1203,0.1204,0,0.1289,0.129,0.1292,0.136,0.136,0.1361,0.1361,0.1451,0.1453,0.1455,0,0,0,0,0,0,0,0,0,0,0,0,0,0.1074,0.1076,0.1203,0.1204,0.1205,0.1289,0.129,0.1292,0.136,0.136,0.1361,0.1361,0.145,0.1453,0.1455,0,0,0,0,0,0,0,0,0,0,0,0,0,0.1145,0.1077,0.1203,0.1246,0.1251,0.1289,0.1291,0.1292,0.136,0.136,0.1361,0.1361,0.145,0.1453,0.1456,0.1462,0,0,0.1465,0.1466,0,0,0,0,0,0,0,0,0.1141,0.115,0.1239,0.1243,0.1249,0.1312,0.1278,0.1348,0.136,0.1322,0.1361,0.1362,0.1402,0.1409,0.1428,0.1466,0.147,0.1465,0.1467,0.1468,0.1469,0,0,0,0,0,0,0,0.1136,0.1146,0.124,0.124,0.1246,0.1253,0.1265,0.1292,0.136,0.1325,0.1329,0.1334,0.1406,0.1425,0.1431,0.1472,0.1465,0.1468,0.147,0.1471,0.1606,0.1608,0,0,0,0,0,0,0.112,0.1142,0.1237,0.1242,0.1192,0.1255,0.1268,0.1293,0.136,0.137,0.1333,0.1337,0.142,0.1427,0.1434,0.1513,0.1468,0.1471,0.1473,0.1604,0.1606,0.1608,0,0,0,0,0,0,0.1117,0.1129,0.1234,0.119,0.1204,0.1257,0.1285,0.1295,0.1341,0.1366,0.1376,0.1371,0.1421,0.143,0.1486,0.1514,0.1472,0.1475,0.1602,0.1605,0.1607,0.1627,0,0,0,0,0,0,0.1114,0.1128,0.1153,0.119,0.1206,0.1269,0.1284,0.1296,0.1339,0.1346,0.1401,0.1409,0.1422,0.1481,0.1489,0.1518,0.1478,0.16,0.1603,0.1607,0.1624,0.163,0.1635,0,0,0,0,0,0.1109,0.1132,0.1154,0.1165,0.1235,0.127,0.128,0.1319,0.1341,0.1364,0.1407,0.1408,0.1508,0.1485,0.1493,0.1524,0.1598,0.1602,0.1606,0.1621,0.1628,0.1635,0,0,0,0,0,0,0.1093,0.1142,0.1167,0.1207,0.1242,0.128,0.1307,0.1333,0.1387,0.1402,0.1429,0.1439,0.1495,0.1512,0.1486,0.1575,0.1554,0.156,0.1563,0.157,0.1575,0.1579,0.148,0,0,0,0,0,0.1099,0.1132,0.1175,0.1209,0.123,0.1275,0.1299,0.1328,0.137,0.1396,0.1434,0.1479,0.1514,0.1544,0.1573,0.1625,0.1639,0.1653,0.1658,0.1662,0.1673,0.1713,0.1723,0.1621,0.1621,0.1621,0,0,0.1101,0.1133,0.1153,0.1208,0.1243,0.1275,0.1294,0.1338,0.1369,0.1396,0.1463,0.1495,0.153,0.1584,0.1612,0.1607,0.1701,0.1667,0.1671,0.168,0.1719,0.1728,0.1737,0.1624,0.1624,0.1623,0,0,0.111,0.1155,0.1184,0.1216,0.1268,0.1291,0.1307,0.1364,0.1399,0.1458,0.1485,0.154,0.1599,0.1633,0.1655,0.1711,0.1721,0.1726,0.1766,0.1805,0.1813,0.1821,0.1854,0.1864,0.1738,0.1738,0.1738,0,0.1113,0.1158,0.1196,0.1232,0.1261,0.1299,0.1336,0.1369,0.1438,0.1476,0.1483,0.1597,0.1621,0.1691,0.1714,0.1722,0.1747,0.1733,0.181,0.1818,0.1825,0.1858,0.1869,0.1739,0.1739,0.1739,0.1739,0,0.114,0.1183,0.1202,0.126,0.1297,0.1331,0.1378,0.1425,0.1469,0.1509,0.1597,0.164,0.1715,0.1728,0.1739,0.1814,0.1815,0.1801,0.1787,0.1836,0.1868,0.1879,0.1741,0.1741,0.1741,0.174,0,0,0.1117,0.1204,0.1214,0.125,0.1317,0.1348,0.1404,0.1468,0.1523,0.1586,0.1666,0.1728,0.1772,0.1801,0.1829,0.1866,0.1932,0.1866,0.1867,0.1888,0.2025,0.1924,0.1926,0.1935,0.1937,0.1938,0.2026,0,0.1126,0.1193,0.1238,0.1299,0.1333,0.1392,0.1439,0.1507,0.1572,0.1655,0.1715,0.1796,0.1793,0.1848,0.1884,0.1929,0.1964,0.191,0.1985,0.1988,0.1881,0.1936,0.1945,0.2035,0.2037,0.2039,0.204,0,0.1124,0.1175,0.1244,0.1326,0.135,0.1395,0.1496,0.1548,0.1657,0.1718,0.1813,0.1866,0.1959,0.1934,0.2033,0.2005,0.2022,0.2037,0.2041,0.1947,0.1906,0.1978,0.206,0.2059,0.2057,0.2056,0.2055,0,0.1074,0.1167,0.1225,0.1255,0.1358,0.141,0.1468,0.1576,0.1641,0.1777,0.1853,0.1951,0.203,0.2067,0.212,0.2088,0.2211,0.2165,0.2085,0.2079,0.2133,0.2124,0.2218,0.2217,0.2217,0.2217,0.2217,0,0.1042,0.1078,0.1213,0.1243,0.1318,0.1402,0.1498,0.157,0.1697,0.1785,0.1894,0.1979,0.2069,0.215,0.2161,0.2172,0.2249,0.2105,0.2098,0.214,0.2131,0.2141,0.2131,0.222,0.222,0.2219,0.2218,0,0.095,0.1039,0.1109,0.1248,0.1295,0.1352,0.1502,0.1568,0.1701,0.1826,0.1878,0.203,0.2134,0.2209,0.2287,0.2225,0.2242,0.2221,0.2288,0.2281,0.2069,0.2059,0.2126,0.2123,0.2121,0.2119,0.2117,0,0.0895,0.0929,0.1103,0.1158,0.1223,0.1331,0.1401,0.1551,0.1629,0.1841,0.1888,0.205,0.2137,0.2176,0.2245,0.2272,0.2237,0.2226,0.2112,0.2075,0.2062,0.2056,0.205,0.2114,0.2113,0.2112,0.2112,0,0.0778,0.0865,0.0931,0.107,0.1165,0.1264,0.1381,0.1437,0.1615,0.1757,0.1866,0.1935,0.2053,0.2109,0.2161,0.2164,0.222,0.22,0.2203,0.2096,0.2061,0.2049,0.2045,0.2104,0.2105,0.2106,0.2106,0,0.0684,0.071,0.0833,0.094,0.1057,0.1151,0.1248,0.1357,0.1457,0.1695,0.1728,0.1901,0.2038,0.2056,0.2102,0.2111,0.2055,0.1961,0.1975,0.1985,0.1897,0.183,0.1808,0,0,0,0,0,0.0587,0.0611,0.0692,0.0815,0.0937,0.1028,0.12,0.1307,0.1502,0.1539,0.163,0.1733,0.182,0.1903,0.1881,0.2023,0.2051,0.1986,0.1947,0.2058,0.2068,0.1976,0,0,0,0,0,0,0.0523,0.0577,0.0633,0.0682,0.0758,0.0888,0.1012,0.1165,0.1203,0.1403,0.1464,0.1605,0.1715,0.1801,0.1832,0.1858,0.1796,0.2091,0.2086,0.2053,0.2062,0.2069,0.1979,0,0,0,0,0]},{"header":{"parameterUnit":"m.s-1","parameterCategory":2,"la1":30.2991,"la2":30.254,"lo1":-89.0895,"lo2":-89.0444,"dy":0.0017,"dx":0.0017,"nx":28,"ny":28,"refTime":"2025-03-17T03:00:00:Z","depth":"4","parameterNumber":3,"parameterNumberName":"V-component_of_CURRENTS"},"data":[0,0,0,0,0,0,0,0,0,0,0,0,0,0,0,0,0,0,0,0,0,0,0,0,0,0,0,0,0,0,0,0,0,0,0,0,0,0,0,0,0,0,0,0,0,0,0,0,0,0,0,0,0,0,0,0,0,0,0.0217,0.0217,0,0.0193,0.0193,0.0193,0.0194,0.0195,0.0195,0.0195,0.0141,0.0139,0.0137,0,0,0,0,0,0,0,0,0,0,0,0,0,0.0288,0.0286,0.0217,0.0217,0.0217,0.0194,0.0193,0.0193,0.0194,0.0195,0.0195,0.0196,0.0141,0.0139,0.0137,0,0,0,0,0,0,0,0,0,0,0,0,0,0.0259,0.0286,0.0217,0.0215,0.0215,0.0194,0.0193,0.0193,0.0194,0.0195,0.0195,0.0196,0.0142,0.0139,0.0136,0.0108,0,0,0.0128,0.0127,0,0,0,0,0,0,0,0,0.0261,0.0256,0.0215,0.0215,0.0215,0.0198,0.0198,0.0163,0.0194,0.0201,0.0195,0.0196,0.0157,0.0153,0.0147,0.0105,0.0103,0.0128,0.0126,0.0125,0.0124,0,0,0,0,0,0,0,0.0263,0.0258,0.0207,0.0215,0.0215,0.0224,0.022,0.0192,0.0175,0.0201,0.0201,0.0199,0.0156,0.0149,0.0145,0.0102,0.0128,0.0125,0.0124,0.0123,0.0057,0.0057,0,0,0,0,0,0,0.0264,0.0259,0.0208,0.0206,0.024,0.0222,0.0218,0.0202,0.0176,0.0173,0.0198,0.0199,0.0154,0.0149,0.0143,0.0159,0.0125,0.0122,0.0121,0.0057,0.0057,0.0057,0,0,0,0,0,0,0.0266,0.0259,0.0209,0.0234,0.0228,0.022,0.0203,0.0201,0.02,0.0175,0.0171,0.0199,0.0154,0.0147,0.013,0.0155,0.0121,0.0119,0.0057,0.0057,0.0057,0.0157,0,0,0,0,0,0,0.0268,0.026,0.0252,0.0233,0.0227,0.0212,0.0202,0.0201,0.0198,0.0198,0.0173,0.0169,0.0154,0.0135,0.0128,0.015,0.0117,0.0057,0.0057,0.0057,0.0154,0.016,0.0166,0,0,0,0,0,0.027,0.0262,0.0252,0.0246,0.0215,0.0213,0.0211,0.0207,0.0197,0.0205,0.0185,0.017,0.0128,0.0132,0.0124,0.0147,0.0058,0.0057,0.0057,0.0151,0.0159,0.0166,0,0,0,0,0,0,0.0285,0.0261,0.0249,0.0232,0.0229,0.0214,0.0218,0.0208,0.0197,0.0196,0.0168,0.0162,0.0157,0.0127,0.0132,0.0123,0.009,0.0088,0.0164,0.0171,0.0177,0.0191,0.0114,0,0,0,0,0,0.0283,0.0275,0.0256,0.0245,0.0243,0.0228,0.0225,0.0223,0.0209,0.0205,0.019,0.0165,0.0147,0.014,0.0118,0.011,0.0069,0.0116,0.0122,0.0128,0.013,0.0094,0.0097,0.0056,0.0056,0.0056,0,0,0.0285,0.0273,0.0266,0.0249,0.0243,0.0255,0.0228,0.0231,0.025,0.0199,0.0216,0.0185,0.0147,0.0149,0.0144,0.013,0.0114,0.0128,0.0133,0.0132,0.0094,0.0098,0.0102,0.0056,0.0056,0.0056,0,0,0.0299,0.0274,0.0278,0.028,0.0277,0.0275,0.0277,0.0268,0.0275,0.028,0.0248,0.0233,0.0207,0.0193,0.0178,0.0196,0.0146,0.0183,0.0232,0.0197,0.0201,0.0203,0.0149,0.0147,0.019,0.019,0.019,0,0.0305,0.03,0.0282,0.0295,0.0302,0.0288,0.0305,0.0312,0.0304,0.0307,0.0302,0.026,0.0234,0.0226,0.0239,0.0215,0.0173,0.0216,0.0208,0.0209,0.021,0.0154,0.015,0.0195,0.0194,0.0194,0.0193,0,0.0325,0.0328,0.0334,0.0345,0.0354,0.0367,0.0375,0.0387,0.0389,0.0389,0.0386,0.0351,0.0322,0.0316,0.0288,0.028,0.024,0.0221,0.0198,0.0221,0.016,0.0154,0.0202,0.02,0.0199,0.0198,0,0,0.0325,0.0344,0.0347,0.0365,0.0382,0.0393,0.0427,0.0446,0.046,0.0465,0.0472,0.0455,0.0423,0.0401,0.0359,0.0337,0.0313,0.0288,0.0284,0.025,0.0216,0.0169,0.0157,0.0293,0.0293,0.0292,0.0168,0,0.0349,0.0381,0.0386,0.0432,0.0451,0.0457,0.049,0.0507,0.0514,0.052,0.0496,0.0484,0.046,0.0437,0.0417,0.0327,0.0301,0.0347,0.0184,0.0179,0.0149,0.015,0.0291,0.0163,0.0162,0.016,0.016,0,0.0371,0.0391,0.0431,0.0474,0.0483,0.0512,0.0547,0.0573,0.058,0.058,0.0567,0.0533,0.0496,0.0472,0.0364,0.039,0.0315,0.0255,0.0248,0.0167,0.0121,0.0133,0.0147,0.0148,0.0149,0.015,0.0151,0,0.0387,0.0427,0.0462,0.0476,0.052,0.0543,0.0568,0.0589,0.0611,0.0605,0.0603,0.0558,0.0518,0.044,0.0321,0.0336,0.0186,0.0188,0.0078,0.0073,0.0109,0.0108,0.012,0.012,0.012,0.012,0.0121,0,0.0414,0.0446,0.0473,0.0495,0.0542,0.0564,0.061,0.0624,0.0639,0.0659,0.0627,0.0609,0.0508,0.0413,0.0318,0.0166,0.018,0.0081,0.0041,0.0151,0.0155,0.0104,0.0104,0.0116,0.0117,0.0118,0.0118,0,0.0436,0.0452,0.0494,0.0534,0.0552,0.0586,0.0642,0.067,0.0677,0.0693,0.0689,0.063,0.0502,0.0381,0.0222,0.0148,0.0015,-0.0042,0.0062,0.003,-0.0073,-0.0067,-0.0167,-0.017,-0.0172,-0.0174,-0.0175,0,0.0447,0.047,0.0516,0.054,0.0564,0.0616,0.0653,0.0686,0.0713,0.0704,0.0706,0.0594,0.0536,0.0279,0.0149,-0.0056,-0.0074,-0.0146,-0.0077,-0.0073,-0.0101,-0.0092,-0.0083,-0.0179,-0.0179,-0.018,-0.018,0,0.0463,0.0478,0.0508,0.0561,0.0603,0.0656,0.0708,0.0726,0.0757,0.0762,0.071,0.0592,0.0435,0.0262,0.0083,-0.005,-0.0096,-0.0169,-0.0164,-0.0099,-0.0088,-0.0112,-0.0101,-0.0188,-0.0187,-0.0186,-0.0186,0,0.0462,0.0482,0.0518,0.0566,0.0628,0.0678,0.0708,0.0733,0.0756,0.0749,0.0721,0.0576,0.0494,0.0261,0.0104,-0.0047,-0.0063,-0.0083,-0.0083,-0.0076,-0.0007,0.0023,-0.008,0,0,0,0,0,0.0449,0.0469,0.0519,0.0571,0.0643,0.0683,0.0737,0.0762,0.0783,0.0753,0.0743,0.0604,0.0371,0.0271,0.0112,0.0059,-0.0099,-0.0133,-0.0124,-0.023,-0.0221,-0.0159,0,0,0,0,0,0,0.0431,0.0476,0.0505,0.0573,0.062,0.0699,0.0737,0.0754,0.074,0.0737,0.0614,0.0569,0.0337,0.0461,0.011,0.0063,0.0049,-0.0237,-0.0241,-0.0235,-0.0227,-0.022,-0.0153,0,0,0,0,0]}]]